FLOCK 3P-78 (42047 NORAD) Tracking and Keplerian Element Data

This shows tracking and keplerian element data for the satellite.

Feedback or suggestion? Click here.




ElementValue
Catalog42047
NameFLOCK 3P-78
Epoch Orbit5463
Epoch Day45.82445165
Epoch Year2018
RAAN111.4763
Inclination97.468
Eccentricity0.0009786
Argument of Perigee70.623
Mean Anonmoly289.6065
Mean Motion15.23901455
Decay Rate1.634E-05
L11 42047U 17008DD 18045.82445165 .00001634 00000-0 70600-4 0 9997
L22 42047 97.4680 111.4763 0009786 70.6230 289.6065 15.23901455 54633

Live tracking and technical data element details for FLOCK 3P-78 (NORAD 42047). FLOCK 3P-78 can be tracked NOW for your location showing map with azimuth and elevation plus other details from your city location.

Track the satellite on the map from your city or location and see movement details for azimuth, elevation, latitude, longitude, range, height, and movement on the map or in text.







IsCatalogInMostPopularTable: catalog: 42047, numindb: 109
Update: records affected: 1



GetName: 42047 FLOCK 3P-78

Hit Count: updated at: Fri, 20 Jul 2018 07:07:53 GMT